Location: The Jewett Observatory
(46.7288°N, 117.1525°W)
Time: 09:41:23
(UTC-08:00)

Amateur Radio Satellites - All Passes

Search period start: 21 November 2014 09:11
Search period end: 22 November 2014 09:11
Location: The Jewett Observatory, 46.7288°N, 117.1525°W

Satellite Date Start Highest point End Downlink Frequencies (MHz)
Time Altitude Azimuth
CINEMA 3 21 Nov 09:11:18 09:15:10 36° 97° (E) 09:19:04 145.822/145.860
FUNcube-1 21 Nov 09:19:33 09:22:49 22° 93° (E) 09:26:07 145.935
CUBEBUG 2 21 Nov 09:20:43 09:24:25 29° 96° (E) 09:28:09 437.445
CUTE 1.7 & AOD 2 21 Nov 09:21:04 09:25:16 57° 287° (WNW) 09:29:27 437.475
DELFI C3 21 Nov 09:24:32 09:28:33 46° 99° (E) 09:32:32 145.870
UKube-1 21 Nov 09:24:43 09:28:56 47° 100° (E) 09:33:06 .
50 SAT 21 Nov 09:30:34 09:32:51 15° 90° (E) 09:35:08 437.505
POPSAT HIP 1 21 Nov 09:30:49 09:35:00 57° 72° (ENE) 09:39:12 437.405
UWE-3 21 Nov 09:31:56 09:35:46 34° 97° (E) 09:39:38 435.000/436.395/437.385
DOVE 4 21 Nov 09:33:41 09:37:51 81° 284° (WNW) 09:42:01 437.250
Oscar 11 21 Nov 09:39:59 09:44:21 80° 103° (ESE) 09:48:42 145.826/435.025
TIGRISAT 21 Nov 09:41:49 09:46:06 81° 257° (WSW) 09:50:23 435.000
ESTCUBE 1 21 Nov 09:44:05 09:44:59 11° 87° (E) 09:45:54 437.505/2401.250
BUGSAT 1 21 Nov 09:44:59 09:49:14 68° 74° (ENE) 09:53:29 437.445
GOMX 1 21 Nov 09:51:52 09:55:47 40° 290° (WNW) 09:59:39 467.674
UNISAT 6 21 Nov 09:52:33 09:56:48 62° 259° (WSW) 10:01:03 437.425
BRITE-PL 21 Nov 09:54:10 09:57:47 29° 293° (WNW) 10:01:21 437.365/2234.400
DX 1 21 Nov 09:54:55 09:59:18 83° 286° (WNW) 10:03:38 434.975-435.025
GONETS M04 21 Nov 09:59:07 10:07:14 40° 292° (WNW) 10:15:27
POLYITAN 1 21 Nov 10:01:02 10:05:18 69° 258° (WSW) 10:09:35 437.675
SEEDS 21 Nov 10:01:20 10:04:54 26° 294° (WNW) 10:08:27 437.485
VELOX 1 21 Nov 10:01:40 10:05:50 38° 98° (E) 10:09:57 145.980
QB50P2 21 Nov 10:05:17 10:09:31 63° 259° (WSW) 10:13:46 145.880/145.840
DUCHIFAT 1 21 Nov 10:14:55 10:19:04 50° 260° (W) 10:23:14 145.980
ZACube-1 21 Nov 10:18:38 10:22:50 89° 283° (WNW) 10:27:05 437.345
ANTELSAT 21 Nov 10:21:14 10:25:04 31° 264° (W) 10:28:54 437.575/2403.000
CANX-2 21 Nov 10:22:56 10:25:18 15° 299° (WNW) 10:27:40 2200.000
AISAT 21 Nov 10:24:27 10:28:53 67° 102° (ESE) 10:33:17 437.250
HO-68 21 Nov 10:28:12 10:34:29 34° 302° (WNW) 10:40:44 435.675
AAUSAT CUBESAT 2 21 Nov 10:29:17 10:32:14 19° 297° (WNW) 10:35:10 437.432
NANOSAT C BR1 21 Nov 10:33:52 10:37:42 32° 264° (W) 10:41:33 145.865
HUMSAT D 21 Nov 10:41:04 10:45:13 83° 284° (WNW) 10:49:24 437.325/437.525
COMPASS 1 21 Nov 10:41:38 10:43:42 14° 300° (WNW) 10:45:47 437.405
QB50P1 21 Nov 10:43:20 10:46:56 26° 265° (W) 10:50:33 145.935-145.965
CINEMA 3 21 Nov 10:48:57 10:52:15 23° 295° (WNW) 10:55:34 145.822/145.860
SO-50 21 Nov 10:52:39 10:55:26 15° 25° (NNE) 10:58:14 436.795
FUNcube-1 21 Nov 10:55:27 10:59:20 38° 290° (WNW) 11:03:14 145.935
CUBEBUG 1 21 Nov 10:57:00 11:01:20 54° 100° (E) 11:05:35 437.445
CUBEBUG 2 21 Nov 10:57:31 11:01:05 28° 293° (WNW) 11:04:42 437.445
Oscar 19 21 Nov 10:58:39 11:01:57 18° 58° (ENE) 11:05:15 437.125/150
DELFI C3 21 Nov 11:00:40 11:03:33 19° 297° (WNW) 11:06:26 145.870
UKube-1 21 Nov 11:01:36 11:04:48 20° 298° (WNW) 11:07:59 .
50 SAT 21 Nov 11:04:34 11:08:32 54° 288° (WNW) 11:12:30 437.505
SPROUT 21 Nov 11:06:57 11:09:48 17° 91° (E) 11:12:38 437.525
POPSAT HIP 1 21 Nov 11:08:44 11:11:16 15° 270° (W) 11:13:50 437.405
UWE-3 21 Nov 11:08:47 11:12:13 25° 294° (WNW) 11:15:40 435.000/436.395/437.385
TISAT 1 21 Nov 11:13:02 11:16:20 22° 93° (E) 11:19:36 437.305
Oscar 11 21 Nov 11:17:55 11:19:56 13° 301° (WNW) 11:21:57 145.826/435.025
ESTCUBE 1 21 Nov 11:17:57 11:22:33 89° 285° (WNW) 11:27:05 437.505/2401.250
BUGSAT 1 21 Nov 11:23:12 11:25:12 13° 271° (W) 11:27:11 437.445
SHINDAISAT 21 Nov 11:27:43 11:29:41 80° 305° (NW) 11:31:40 437.305
DX 1 21 Nov 11:33:39 11:34:49 11° 304° (NW) 11:35:58 434.975-435.025
VELOX 1 21 Nov 11:38:38 11:42:15 25° 296° (WNW) 11:45:50 145.980
ITAMSAT 1 21 Nov 11:40:08 11:43:31 18° 58° (ENE) 11:46:55 435.822/435.867
Gurwin Techsat 1B 21 Nov 11:44:11 11:45:59 12° 53° (NE) 11:47:46 435.225
AUBIESAT-1 21 Nov 11:44:25 11:45:27 11° 91° (E) 11:46:28 437.475
M-CUBED/EXP-1 PRIME 21 Nov 11:45:09 11:47:04 12° 92° (E) 11:48:59 437.505
AO-7 21 Nov 11:53:46 11:55:40 11° 31° (NNE) 11:57:33 29.400- 29.500
ZACube-1 21 Nov 11:57:32 11:58:35 11° 302° (WNW) 11:59:37 437.345
BEESAT 21 Nov 11:59:27 12:01:05 12° 87° (E) 12:02:43 436.000
AISAT 21 Nov 12:02:24 12:05:02 16° 300° (WNW) 12:07:39 437.250
YUBILEINY 21 Nov 12:19:10 12:26:30 29° 63° (ENE) 12:33:44 435.215
HORYU 2 21 Nov 12:29:24 12:30:00 10° 55° (NE) 12:30:35 437.375
SO-50 21 Nov 12:32:20 12:37:05 51° 47° (NE) 12:41:52 436.795
CUBEBUG 1 21 Nov 12:34:19 12:37:19 18° 298° (WNW) 12:40:17 437.445
Oscar 19 21 Nov 12:35:36 12:40:43 76° 257° (WSW) 12:45:51 437.125/150
SPROUT 21 Nov 12:42:02 12:46:12 50° 289° (WNW) 12:50:20 437.525
TISAT 1 21 Nov 12:48:23 12:52:19 38° 291° (WNW) 12:56:13 437.305
ITUPSAT 1 21 Nov 12:49:47 12:54:11 34° 97° (E) 12:58:33 437.325
ESTCUBE 1 21 Nov 12:56:49 12:58:43 13° 303° (WNW) 13:00:38 437.505/2401.250
SWISSCUBE 21 Nov 13:02:37 13:07:18 49° 100° (E) 13:11:57 437.505
CUSAT 1 21 Nov 13:09:19 13:12:07 48° 98° (E) 13:14:39 437.405
DANDE 21 Nov 13:12:49 13:15:42 42° 99° (E) 13:18:15 436.750
AUBIESAT-1 21 Nov 13:16:14 13:21:09 77° 108° (ESE) 13:26:03 437.475
ITAMSAT 1 21 Nov 13:17:11 13:22:24 78° 256° (WSW) 13:27:40 435.822/435.867
M-CUBED/EXP-1 PRIME 21 Nov 13:17:49 13:22:45 85° 109° (ESE) 13:27:41 437.505
Gurwin Techsat 1B 21 Nov 13:19:42 13:24:58 67° 72° (ENE) 13:30:15 435.225
BEESAT 21 Nov 13:34:47 13:39:37 89° 283° (WNW) 13:44:25 436.000
AO-7 21 Nov 13:38:43 13:46:02 37° 55° (NE) 13:53:23 29.400- 29.500
KKS-1 21 Nov 13:46:25 13:50:16 28° 95° (E) 13:54:05 437.445
HORYU 2 21 Nov 14:01:28 14:05:53 76° 74° (ENE) 14:10:20 437.375
SO-50 21 Nov 14:13:22 14:17:25 27° 246° (WSW) 14:21:28 436.795
YUBILEINY 21 Nov 14:15:29 14:24:12 74° 266° (W) 14:32:49 435.215
ITUPSAT 1 21 Nov 14:27:47 14:32:01 31° 295° (WNW) 14:36:14 437.325
SWISSCUBE 21 Nov 14:41:08 14:44:52 23° 298° (WNW) 14:48:35 437.505
JAS-2 21 Nov 14:43:18 14:49:34 29° 57° (ENE) 14:55:59 435.910
AUBIESAT-1 21 Nov 14:52:19 14:55:36 18° 306° (NW) 14:58:54 437.475
STARS 21 Nov 14:52:27 14:56:53 90° 118° (ESE) 15:01:16 437.465
M-CUBED/EXP-1 PRIME 21 Nov 14:54:07 14:57:11 17° 307° (NW) 15:00:17 437.505
ITAMSAT 1 21 Nov 15:01:37 15:02:45 11° 274° (W) 15:03:54 435.822/435.867
Gurwin Techsat 1B 21 Nov 15:01:46 15:05:25 19° 270° (W) 15:09:05 435.225
BEESAT 21 Nov 15:14:27 15:16:45 14° 304° (WNW) 15:19:04 436.000
Cubesat XI-IV 21 Nov 15:21:14 15:23:24 13° 53° (NE) 15:25:34 437.490
KKS-1 21 Nov 15:22:57 15:26:56 33° 293° (WNW) 15:30:53 437.445
AO-7 21 Nov 15:30:15 15:38:25 63° 256° (WSW) 15:46:42 29.400- 29.500
HORYU 2 21 Nov 15:41:18 15:43:07 12° 272° (W) 15:44:56 437.375
O/OREOS (USA 219) 21 Nov 15:43:29 15:47:50 48° 60° (ENE) 15:52:09 437.305
MaSat-1 21 Nov 15:50:32 15:53:27 41° 115° (ESE) 15:56:08 437.345
VERMONT LUNAR 21 Nov 15:52:04 15:53:17 11° 153° (SSE) 15:54:31 437.305
MOZHAYETS 4 21 Nov 15:52:18 15:55:38 19° 91° (E) 15:58:56
CUTE-I 21 Nov 16:01:27 16:05:44 25° 61° (ENE) 16:10:02 437.470
RS-15 21 Nov 16:11:40 16:22:02 51° 113° (ESE) 16:32:24 29.354- 29.394
YUBILEINY 21 Nov 16:14:42 16:19:22 16° 287° (WNW) 16:24:01 435.215
JAS-2 21 Nov 16:26:17 16:33:49 77° 257° (WSW) 16:41:46 435.910
STARS 21 Nov 16:31:02 16:32:41 12° 303° (WNW) 16:34:21 437.465
Cubesat XI-IV 21 Nov 16:57:13 17:02:33 70° 72° (ENE) 17:07:55 437.490
PHONESAT 2.4 21 Nov 16:57:43 17:00:24 19° 160° (SSE) 17:03:04 2401.200-2431.200
PRISM 21 Nov 17:14:41 17:18:09 24° 94° (E) 17:21:35 437.425
CUBESAT XI-V 21 Nov 17:20:56 17:22:44 12° 87° (E) 17:24:31 437.345
O/OREOS (USA 219) 21 Nov 17:23:38 17:26:53 20° 258° (WSW) 17:30:09 437.305
MaSat-1 21 Nov 17:27:05 17:28:18 12° 310° (NW) 17:29:28 437.345
VERMONT LUNAR 21 Nov 17:28:00 17:31:04 26° 169° (S) 17:34:09 437.305
HO-68 21 Nov 17:28:23 17:31:56 15° 45° (NE) 17:35:30 435.675
MOZHAYETS 4 21 Nov 17:28:38 17:33:10 53° 289° (WNW) 17:37:41
AO-7 21 Nov 17:29:50 17:32:56 12° 277° (W) 17:36:03 29.400- 29.500
STRAND 1 21 Nov 17:31:23 17:34:25 16° 89° (E) 17:37:26 437.568
CUTE-I 21 Nov 17:40:14 17:45:29 54° 260° (W) 17:50:45 437.470
GONETS M04 21 Nov 18:08:21 18:16:02 31° 64° (ENE) 18:23:38
JAS-2 21 Nov 18:15:24 18:20:05 17° 277° (W) 18:24:54 435.910
RS-15 21 Nov 18:23:35 18:34:18 58° 318° (NW) 18:45:11 29.354- 29.394
PHONESAT 2.4 21 Nov 18:35:19 18:38:38 31° 177° (S) 18:41:57 2401.200-2431.200
Cubesat XI-IV 21 Nov 18:39:35 18:43:10 18° 270° (W) 18:46:47 437.490
CUTE 1.7 & AOD 2 21 Nov 18:42:47 18:45:31 17° 62° (ENE) 18:48:16 437.475
PRISM 21 Nov 18:49:54 18:53:48 36° 292° (WNW) 18:57:40 437.425
CUBESAT XI-V 21 Nov 18:56:06 19:00:49 83° 285° (WNW) 19:05:28 437.345
Oscar 11 21 Nov 19:05:05 19:06:21 11° 57° (ENE) 19:07:38 145.826/435.025
VERMONT LUNAR 21 Nov 19:05:53 19:09:06 29° 186° (S) 19:12:17 437.305
DOVE 4 21 Nov 19:06:19 19:09:24 18° 63° (ENE) 19:12:23 437.250
SHINDAISAT 21 Nov 19:08:25 19:10:18 43° 51° (NE) 19:12:09 437.305
STRAND 1 21 Nov 19:09:03 19:14:11 74° 287° (WNW) 19:19:16 437.568
HO-68 21 Nov 19:11:12 19:18:12 58° 66° (ENE) 19:25:13 435.675
DX 1 21 Nov 19:19:17 19:21:55 16° 60° (ENE) 19:24:33 434.975-435.025
SEEDS 21 Nov 19:20:42 19:24:29 34° 69° (ENE) 19:28:18 437.485
GOMX 1 21 Nov 19:24:53 19:29:14 34° 69° (ENE) 19:33:21 467.674
BRITE-PL 21 Nov 19:28:36 19:33:32 50° 71° (ENE) 19:38:07 437.365/2234.400
AIST 1 21 Nov 19:36:54 19:41:05 46° 93° (E) 19:45:20
CANX-2 21 Nov 19:41:30 19:45:41 70° 74° (ENE) 19:49:55 2200.000
ZACube-1 21 Nov 19:44:24 19:46:07 12° 59° (ENE) 19:47:50 437.345
AAUSAT CUBESAT 2 21 Nov 19:47:00 19:50:59 48° 71° (ENE) 19:55:01 437.432
AISAT 21 Nov 19:52:17 19:53:58 12° 57° (ENE) 19:55:39 437.250
COMPASS 1 21 Nov 19:58:46 20:02:55 73° 75° (ENE) 20:07:07 437.405
HUMSAT D 21 Nov 20:03:33 20:05:07 12° 59° (ENE) 20:06:41 437.325/437.525
GONETS M04 21 Nov 20:04:50 20:13:36 68° 267° (W) 20:22:17
PCSat 21 Nov 20:05:55 20:11:00 43° 114° (ESE) 20:16:07 145.827
PHONESAT 2.4 21 Nov 20:13:53 20:16:57 24° 194° (SSW) 20:20:00 2401.200-2431.200
CINEMA 3 21 Nov 20:16:01 20:20:19 49° 72° (ENE) 20:24:28 145.822/145.860
DELFI C3 21 Nov 20:16:15 20:20:07 44° 71° (ENE) 20:24:01 145.870
CUTE 1.7 & AOD 2 21 Nov 20:16:56 20:21:04 54° 260° (W) 20:25:14 437.475
FUNcube-1 21 Nov 20:18:44 20:22:13 26° 66° (ENE) 20:25:41 145.935
CUBEBUG 2 21 Nov 20:22:09 20:26:06 36° 69° (ENE) 20:29:58 437.445
UKube-1 21 Nov 20:22:33 20:26:51 60° 72° (ENE) 20:31:10 .
50 SAT 21 Nov 20:23:00 20:25:23 15° 62° (ENE) 20:27:46 437.505
UWE-3 21 Nov 20:32:16 20:36:16 40° 70° (ENE) 20:40:12 435.000/436.395/437.385
CUBESAT XI-V 21 Nov 20:35:42 20:37:30 12° 303° (WNW) 20:39:16 437.345
Oscar 11 21 Nov 20:37:32 20:41:50 88° 76° (ENE) 20:46:10 145.826/435.025
RS-15 21 Nov 20:40:10 20:49:35 31° 350° (N) 20:59:12 29.354- 29.394
DOVE 4 21 Nov 20:42:10 20:46:50 58° 259° (W) 20:51:15 437.250
VERMONT LUNAR 21 Nov 20:44:42 20:46:59 16° 203° (SSW) 20:49:16 437.305
ESTCUBE 1 21 Nov 20:45:57 20:48:41 16° 60° (ENE) 20:51:25 437.505/2401.250
STRAND 1 21 Nov 20:50:27 20:52:30 12° 306° (NW) 20:54:33 437.568
DX 1 21 Nov 20:53:19 20:57:40 66° 258° (WSW) 21:02:04 434.975-435.025
SEEDS 21 Nov 20:56:59 21:00:24 24° 266° (W) 21:03:52 437.485
HO-68 21 Nov 20:59:58 21:06:15 32° 265° (W) 21:12:35 435.675
VELOX 1 21 Nov 21:02:18 21:06:38 50° 71° (ENE) 21:10:59 145.980
GOMX 1 21 Nov 21:03:05 21:07:23 30° 264° (W) 21:11:27 467.674
BRITE-PL 21 Nov 21:08:18 21:12:15 22° 267° (W) 21:16:00 437.365/2234.400
BEESAT 3 21 Nov 21:11:50 21:15:53 62° 123° (ESE) 21:20:02 437.485
AIST 1 21 Nov 21:15:50 21:19:02 19° 292° (WNW) 21:22:15
ZACube-1 21 Nov 21:17:41 21:21:56 79° 257° (WSW) 21:26:09 437.345
CANX-2 21 Nov 21:20:24 21:22:08 12° 272° (W) 21:23:52 2200.000
BEESAT 2 21 Nov 21:23:20 21:27:26 73° 124° (SE) 21:31:38 435.950
AAUSAT CUBESAT 2 21 Nov 21:24:14 21:26:58 17° 269° (W) 21:29:44 437.432
AISAT 21 Nov 21:25:24 21:29:54 87° 76° (ENE) 21:34:25 437.250
TIGRISAT 21 Nov 21:31:44 21:34:35 17° 91° (E) 21:37:26 435.000
HUMSAT D 21 Nov 21:36:12 21:40:21 80° 257° (WSW) 21:44:30 437.325/437.525
AIST 2 21 Nov 21:36:59 21:41:07 53° 121° (ESE) 21:45:18 435.215
COMPASS 1 21 Nov 21:37:48 21:39:11 11° 272° (W) 21:40:35 437.405
UNISAT 6 21 Nov 21:42:17 21:45:42 22° 93° (E) 21:49:09 437.425
POLYITAN 1 21 Nov 21:45:26 21:48:04 16° 91° (E) 21:50:41 437.675
QB50P2 21 Nov 21:49:13 21:52:05 18° 91° (E) 21:54:56 145.880/145.840
PCSat 21 Nov 21:49:31 21:54:30 36° 314° (NW) 21:59:32 145.827
DELFI C3 21 Nov 21:52:51 21:55:40 18° 268° (W) 21:58:30 145.870
FUNcube-1 21 Nov 21:54:39 21:58:29 33° 263° (W) 22:02:17 145.935
CINEMA 3 21 Nov 21:54:44 21:57:48 18° 268° (W) 22:00:48 145.822/145.860
CUBEBUG 1 21 Nov 21:55:58 22:00:23 66° 73° (ENE) 22:04:49 437.445
50 SAT 21 Nov 21:56:19 22:00:18 56° 259° (W) 22:04:18 437.505
DUCHIFAT 1 21 Nov 21:58:06 22:01:20 21° 93° (E) 22:04:32 145.980
CUBEBUG 2 21 Nov 21:59:29 22:02:55 23° 266° (W) 22:06:19 437.445
UKube-1 21 Nov 22:00:51 22:03:25 15° 269° (W) 22:05:59 .
SPROUT 21 Nov 22:04:15 22:07:28 21° 63° (ENE) 22:10:40 437.525
GONETS M04 21 Nov 22:04:25 22:08:38 15° 289° (WNW) 22:12:51
TISAT 1 21 Nov 22:08:38 22:12:10 26° 65° (ENE) 22:15:42 437.305
UWE-3 21 Nov 22:09:46 22:12:59 21° 267° (W) 22:16:11 435.000/436.395/437.385
ANTELSAT 21 Nov 22:09:56 22:14:06 40° 98° (E) 22:18:19 437.575/2403.000
NANOSAT C BR1 21 Nov 22:16:18 22:20:07 32° 96° (E) 22:23:54 145.865
ESTCUBE 1 21 Nov 22:20:30 22:25:02 70° 258° (WSW) 22:29:36 437.505/2401.250
QB50P1 21 Nov 22:25:25 22:29:25 40° 98° (E) 22:33:23 145.935-145.965
AUBIESAT-1 21 Nov 22:35:20 22:38:18 20° 55° (NE) 22:41:27 437.475
M-CUBED/EXP-1 PRIME 21 Nov 22:37:02 22:40:10 22° 56° (NE) 22:43:30 437.505
SWISSCUBE 21 Nov 22:37:59 22:39:48 12° 55° (NE) 22:41:37 437.505
VELOX 1 21 Nov 22:40:21 22:43:31 19° 268° (W) 22:46:41 145.980
POPSAT HIP 1 21 Nov 22:49:26 22:53:41 73° 103° (ESE) 22:57:53 437.405
BEESAT 3 21 Nov 22:51:15 22:54:30 22° 323° (NW) 22:57:48 437.485
RS-15 21 Nov 22:55:47 23:05:53 38° 25° (NNE) 23:16:18 29.354- 29.394
BUGSAT 1 21 Nov 23:00:28 23:04:38 80° 104° (ESE) 23:08:42 437.445
BEESAT 2 21 Nov 23:03:07 23:06:13 20° 324° (NW) 23:09:21 435.950
AISAT 21 Nov 23:06:05 23:07:11 11° 273° (W) 23:08:16 437.250
TIGRISAT 21 Nov 23:07:24 23:11:39 54° 288° (WNW) 23:15:59 435.000
BEESAT 21 Nov 23:08:07 23:11:35 20° 61° (ENE) 23:15:05 436.000
AIST 2 21 Nov 23:16:28 23:20:01 25° 321° (NW) 23:23:38 435.215
UNISAT 6 21 Nov 23:18:33 23:22:40 42° 290° (WNW) 23:26:52 437.425
POLYITAN 1 21 Nov 23:20:14 23:24:22 53° 288° (WNW) 23:28:28 437.675
QB50P2 21 Nov 23:24:13 23:28:18 48° 289° (WNW) 23:32:22 145.880/145.840
DUCHIFAT 1 21 Nov 23:33:26 23:37:23 39° 291° (WNW) 23:41:18 145.980
CUBEBUG 1 21 Nov 23:34:48 23:37:13 14° 271° (W) 23:39:39 437.445
PCSat 21 Nov 23:37:32 23:39:35 12° 338° (NNW) 23:41:38 145.827
SPROUT 21 Nov 23:39:07 23:43:16 45° 261° (W) 23:47:27 437.525
CUSAT 1 21 Nov 23:42:52 23:46:45 57° 78° (ENE) 23:51:59 437.405
TISAT 1 21 Nov 23:43:58 23:47:53 34° 263° (W) 23:51:49 437.305
ANTELSAT 21 Nov 23:47:14 23:50:43 23° 295° (WNW) 23:54:14 437.575/2403.000
DANDE 21 Nov 23:48:37 23:52:20 54° 78° (ENE) 23:57:19 436.750
NANOSAT C BR1 21 Nov 23:52:23 23:55:55 26° 294° (WNW) 23:59:26 145.865
ITUPSAT 1 21 Nov 23:59:24 00:04:05 55° 71° (ENE) 00:08:48 437.325
QB50P1 22 Nov 00:01:51 00:05:06 22° 296° (WNW) 00:08:20 145.935-145.965
AUBIESAT-1 22 Nov 00:09:04 00:12:55 51° 255° (WSW) 00:17:10 437.475
M-CUBED/EXP-1 PRIME 22 Nov 00:11:09 00:14:55 44° 257° (WSW) 00:19:05 437.505
SWISSCUBE 22 Nov 00:12:04 00:16:52 78° 74° (ENE) 00:21:42 437.505
STARS 22 Nov 00:18:28 00:20:53 15° 59° (ENE) 00:23:19 437.465
POPSAT HIP 1 22 Nov 00:26:58 00:29:03 14° 301° (WNW) 00:31:06 437.405
BUGSAT 1 22 Nov 00:37:57 00:39:31 12° 302° (WNW) 00:41:04 437.445
BEESAT 22 Nov 00:44:20 00:49:02 57° 259° (W) 00:53:48 436.000
Oscar 19 22 Nov 00:44:32 00:49:06 31° 95° (E) 00:53:39 437.125/150
KKS-1 22 Nov 00:47:30 00:51:36 37° 68° (ENE) 00:55:42 437.445
RS-15 22 Nov 01:08:44 01:19:58 86° 53° (NE) 01:31:41 29.354- 29.394
ISS 22 Nov 01:21:59 01:25:14 59° 148° (SSE) 01:28:29 145.825
YUBILEINY 22 Nov 01:24:55 01:32:00 28° 80° (E) 01:39:04 435.215
CUSAT 1 22 Nov 01:27:21 01:29:49 15° 267° (W) 01:32:38 437.405
MaSat-1 22 Nov 01:27:33 01:29:38 29° 246° (WSW) 01:31:45 437.345
ITAMSAT 1 22 Nov 01:27:33 01:32:07 30° 95° (E) 01:36:38 435.822/435.867
DANDE 22 Nov 01:33:27 01:35:45 15° 267° (W) 01:38:24 436.750
Gurwin Techsat 1B 22 Nov 01:33:47 01:37:47 21° 91° (E) 01:41:45 435.225
ITUPSAT 1 22 Nov 01:38:52 01:42:19 19° 269° (W) 01:45:48 437.325
HORYU 2 22 Nov 01:52:19 01:54:04 12° 88° (E) 01:55:50 437.375
STARS 22 Nov 01:52:26 01:56:50 72° 257° (WSW) 02:01:16 437.465
SWISSCUBE 22 Nov 01:52:58 01:55:19 14° 272° (W) 01:57:41 437.505
Oscar 19 22 Nov 02:23:45 02:28:31 39° 293° (WNW) 02:33:15 437.125/150
KKS-1 22 Nov 02:24:39 02:28:20 25° 266° (W) 02:32:02 437.445
MOZHAYETS 4 22 Nov 02:57:13 03:00:57 25° 65° (ENE) 03:04:44
ISS 22 Nov 02:58:52 03:02:00 40° 348° (NNW) 03:05:09 145.825
ITAMSAT 1 22 Nov 03:06:53 03:11:42 40° 293° (WNW) 03:16:29 435.822/435.867
PCSat 22 Nov 03:08:06 03:11:40 17° 32° (NNE) 03:15:12 145.827
Gurwin Techsat 1B 22 Nov 03:12:54 03:18:08 58° 289° (WNW) 03:23:19 435.225
YUBILEINY 22 Nov 03:19:14 03:28:02 71° 282° (WNW) 03:36:51 435.215
RS-15 22 Nov 03:22:03 03:31:08 30° 256° (WSW) 03:40:33 29.354- 29.394
HORYU 2 22 Nov 03:26:49 03:31:19 79° 286° (WNW) 03:35:48 437.375
AO-7 22 Nov 03:28:31 03:36:15 39° 98° (E) 03:43:55 29.400- 29.500
JAS-2 22 Nov 03:35:37 03:39:54 16° 82° (E) 03:43:56 435.910
BEESAT 3 22 Nov 03:51:48 03:54:46 18° 34° (NE) 03:57:42 437.485
BEESAT 2 22 Nov 04:03:30 04:06:41 20° 36° (NE) 04:09:51 435.950
PRISM 22 Nov 04:08:29 04:12:02 27° 66° (ENE) 04:15:37 437.425
AIST 2 22 Nov 04:18:35 04:21:31 17° 33° (NNE) 04:24:26 435.215
CUBESAT XI-V 22 Nov 04:26:49 04:30:00 18° 61° (ENE) 04:33:12 437.345
SO-50 22 Nov 04:30:01 04:34:25 54° 121° (ESE) 04:38:58 436.795
MOZHAYETS 4 22 Nov 04:33:42 04:38:00 40° 263° (W) 04:42:22
ISS 22 Nov 04:36:03 04:39:08 36° 8° (N) 04:42:14 145.825
STRAND 1 22 Nov 04:49:32 04:54:02 31° 64° (ENE) 04:58:32 437.568
PCSat 22 Nov 04:50:43 04:56:09 66° 54° (NE) 05:01:32 145.827
Gurwin Techsat 1B 22 Nov 04:56:23 04:57:01 10° 309° (NW) 04:57:38 435.225
HORYU 2 22 Nov 05:06:07 05:07:14 11° 304° (NW) 05:08:21 437.375
Cubesat XI-IV 22 Nov 05:12:26 05:16:32 22° 92° (E) 05:20:35 437.490
JAS-2 22 Nov 05:18:45 05:26:15 82° 104° (ESE) 05:32:52 435.910
YUBILEINY 22 Nov 05:21:09 05:26:42 18° 306° (NW) 05:32:16 435.215
AO-7 22 Nov 05:21:13 05:29:17 56° 298° (WNW) 05:37:21 29.400- 29.500
BEESAT 3 22 Nov 05:29:20 05:33:34 84° 235° (SW) 05:37:44 437.485
BEESAT 2 22 Nov 05:41:13 05:45:27 72° 236° (SW) 05:49:36 435.950
AIST 1 22 Nov 05:42:08 05:45:02 17° 67° (ENE) 05:47:55
PRISM 22 Nov 05:43:45 05:47:31 32° 263° (W) 05:51:19 437.425
CUTE-I 22 Nov 05:54:24 05:59:35 49° 99° (E) 06:04:42 437.470
AIST 2 22 Nov 05:56:28 06:00:49 85° 53° (NE) 06:05:06 435.215
O/OREOS (USA 219) 22 Nov 05:58:55 06:02:52 31° 105° (ESE) 06:06:50 437.305
CUBESAT XI-V 22 Nov 06:02:18 06:06:59 63° 259° (W) 06:11:42 437.345
SO-50 22 Nov 06:11:18 06:15:15 28° 322° (NW) 06:19:19 436.795
ISS 22 Nov 06:12:43 06:16:02 86° 208° (SSW) 06:19:21 145.825
STRAND 1 22 Nov 06:28:19 06:33:07 39° 263° (W) 06:37:56 437.568
PCSat 22 Nov 06:35:02 06:39:04 22° 253° (WSW) 06:43:06 145.827
Cubesat XI-IV 22 Nov 06:51:45 06:56:59 57° 290° (WNW) 07:02:10 437.490
JAS-2 22 Nov 07:04:40 07:10:22 25° 306° (NW) 07:15:39 435.910
BEESAT 3 22 Nov 07:10:50 07:11:04 10° 252° (WSW) 07:11:18 437.485
GONETS M04 22 Nov 07:13:59 07:21:19 31° 81° (E) 07:28:41
AO-7 22 Nov 07:15:40 07:20:19 16° 321° (NW) 07:24:59 29.400- 29.500
AIST 1 22 Nov 07:18:47 07:23:05 53° 266° (W) 07:27:19
CANX-2 22 Nov 07:27:41 07:27:51 10° 87° (E) 07:28:02 2200.000
CUTE-I 22 Nov 07:34:59 07:39:23 27° 298° (WNW) 07:43:46 437.470
AIST 2 22 Nov 07:37:05 07:38:48 12° 252° (WSW) 07:40:30 435.215
O/OREOS (USA 219) 22 Nov 07:38:12 07:42:14 32° 304° (NW) 07:46:17 437.305
ISS 22 Nov 07:50:15 07:52:17 15° 225° (SW) 07:54:18 145.825
SO-50 22 Nov 07:56:25 07:57:26 11° 346° (NNW) 07:58:26 436.795
CUTE 1.7 & AOD 2 22 Nov 08:00:12 08:03:30 21° 93° (E) 08:06:47 437.475
POPSAT HIP 1 22 Nov 08:13:53 08:14:19 10° 57° (ENE) 08:14:44 437.405
BUGSAT 1 22 Nov 08:22:00 08:22:48 11° 57° (ENE) 08:23:37 437.445
HO-68 22 Nov 08:23:14 08:30:05 45° 99° (E) 08:36:52 435.675
Oscar 11 22 Nov 08:23:50 08:25:58 13° 89° (E) 08:28:05 145.826/435.025
TIGRISAT 22 Nov 08:33:49 08:37:02 21° 64° (ENE) 08:40:16 435.000
SEEDS 22 Nov 08:38:03 08:42:10 45° 99° (E) 08:46:15 437.485
DOVE 4 22 Nov 08:38:54 08:42:26 26° 95° (E) 08:46:00 437.250
DX 1 22 Nov 08:40:05 08:42:59 17° 92° (E) 08:45:52 434.975-435.025
POLYITAN 1 22 Nov 08:41:53 08:44:56 19° 63° (ENE) 08:47:59 437.675
UNISAT 6 22 Nov 08:44:38 08:48:14 27° 66° (ENE) 08:51:51 437.425
QB50P2 22 Nov 08:45:28 08:48:39 21° 64° (ENE) 08:51:51 145.880/145.840
DUCHIFAT 1 22 Nov 08:53:57 08:57:25 24° 65° (ENE) 09:00:52 145.980
CANX-2 22 Nov 09:00:06 09:04:25 86° 285° (WNW) 09:08:42 2200.000
GOMX 1 22 Nov 09:01:27 09:05:35 61° 101° (E) 09:09:43 467.674
ZACube-1 22 Nov 09:04:52 09:07:26 16° 91° (E) 09:10:01 437.345
